Junction, TX

8:50 AM CST on February 20, 2017 (GMT -0600)
Kimble County

Weather History for KJCT - January, 2013

Change the Weather History Date:

Thursday, January 10, 2013

  Actual Average Record
Temperature  
Mean Temperature 52 °F -  
Max Temperature 63 °F 59 °F 81 °F (2017)
Min Temperature 42 °F 31 °F 18 °F (1999)
Degree Days  
Heating Degree Days 12    
Growing Degree Days 2 (Base 50)    
Moisture  
Dew Point 41 °F    
Average Humidity 75    
Maximum Humidity 93    
Minimum Humidity 38    
Precipitation  
Precipitation 0.00 in - - ()
Sea Level Pressure  
Sea Level Pressure 29.97 in    
Wind  
Wind Speed 6 mph (WSW)    
Max Wind Speed 16 mph    
Max Gust Speed 25 mph    
Visibility 9 miles    
Events      
Averages and records for this station are not official NWS values.
T = Trace of Precipitation, MM = Missing Value Source: NWS Daily Summary

Daily Weather History Graph

Daily Weather History Graph

Search for Another Location

Airport or City:

Trip Planner

Search our weather history database for the weather conditions in past years. The results will help you decide how hot, cold, wet, or windy it might be!

Date:

Astronomy

Jan. 10, 2013 Rise Set
Actual Time 7:37 AM CST 5:56 PM CST
Civil Twilight 7:10 AM CST 6:22 PM CST
Nautical Twilight 6:41 AM CST 6:52 PM CST
Astronomical Twilight 6:12 AM CST 7:21 PM CST
Moon 6:18 AM CST (1/10) 5:05 PM CST (1/10)
Length of Visible Light 11h 11m
Length of Day
10h 19m
Waning Crescent, 2% of the Moon is Illuminated
Jan 10
Waning Crescent
Jan 11
New
Jan 18
First Quarter
Jan 26
Full
Feb 3
Last Quarter

Hourly Weather History & Observations

Time (CST) Temp. Windchill Dew Point Humidity Pressure Visibility Wind Dir Wind Speed Gust Speed Precip Events Conditions
12:08 AM 48.2 °F - 46.4 °F 93% 30.01 in 9.0 mi Calm Calm - N/A   Overcast
12:20 AM 48.2 °F - 46.4 °F 93% 30.02 in 8.0 mi West 4.6 mph - N/A   Overcast
12:32 AM 48.2 °F - 46.4 °F 93% 30.01 in 6.0 mi WNW 8.1 mph - N/A   Overcast
12:48 AM 48.2 °F - 44.6 °F 87% 30.00 in 9.0 mi West 6.9 mph - N/A   Overcast
12:51 AM 48.0 °F - 45.0 °F 89% 29.95 in 9.0 mi West 6.9 mph - N/A   Overcast
1:16 AM 46.4 °F 42.9 °F 44.6 °F 93% 29.99 in 9.0 mi West 6.9 mph - N/A   Overcast
1:51 AM 46.9 °F - 44.1 °F 90% 29.96 in 10.0 mi WSW 5.8 mph - N/A   Mostly Cloudy
2:40 AM 46.4 °F 44.3 °F 42.8 °F 87% 30.01 in 10.0 mi WSW 4.6 mph - N/A   Overcast
2:51 AM 46.9 °F - 43.0 °F 86% 29.96 in 10.0 mi Calm Calm - N/A   Mostly Cloudy
3:05 AM 46.4 °F 45.2 °F 42.8 °F 87% 30.00 in 10.0 mi WSW 3.5 mph - N/A   Overcast
3:13 AM 46.4 °F 44.3 °F 44.6 °F 93% 30.00 in 10.0 mi SW 4.6 mph - N/A   Overcast
3:51 AM 46.9 °F - 41.0 °F 80% 29.97 in 10.0 mi WSW 15.0 mph 20.7 mph N/A   Overcast
4:51 AM 43.0 °F 37.2 °F 37.0 °F 80% 29.97 in 10.0 mi WSW 10.4 mph - N/A   Partly Cloudy
5:04 AM 42.8 °F 37.0 °F 37.4 °F 81% 30.01 in 10.0 mi WSW 10.4 mph - N/A   Mostly Cloudy
5:51 AM 43.0 °F 39.5 °F 37.9 °F 82% 29.97 in 10.0 mi WSW 5.8 mph - N/A   Overcast
6:08 AM 42.8 °F 39.3 °F 37.4 °F 81% 30.02 in 10.0 mi WSW 5.8 mph - N/A   Overcast
6:27 AM 42.8 °F 38.6 °F 37.4 °F 81% 30.02 in 10.0 mi WSW 6.9 mph - N/A   Overcast
6:49 AM 42.8 °F 38.6 °F 37.4 °F 81% 30.02 in 10.0 mi WSW 6.9 mph - N/A   Overcast
6:51 AM 43.0 °F 38.8 °F 37.9 °F 82% 29.98 in 10.0 mi WSW 6.9 mph - N/A   Overcast
7:17 AM 42.8 °F 38.6 °F 39.2 °F 87% 30.02 in 10.0 mi WSW 6.9 mph - N/A   Overcast
7:51 AM 44.1 °F 38.6 °F 39.0 °F 82% 29.99 in 7.0 mi West 10.4 mph - N/A   Overcast
8:38 AM 46.4 °F 40.7 °F 39.2 °F 76% 30.02 in 8.0 mi West 12.7 mph - N/A   Partly Cloudy
8:51 AM 46.9 °F - 39.9 °F 77% 29.99 in 7.0 mi West 10.4 mph 20.7 mph N/A   Partly Cloudy
9:11 AM 48.2 °F - 41.0 °F 76% 30.04 in 8.0 mi West 11.5 mph 19.6 mph N/A   Mostly Cloudy
9:51 AM 48.0 °F - 39.9 °F 74% 30.01 in 8.0 mi West 16.1 mph 25.3 mph N/A   Overcast
10:51 AM 50.0 °F - 39.9 °F 68% 30.00 in 9.0 mi West 16.1 mph 25.3 mph N/A   Overcast
11:37 AM 51.8 °F - 41.0 °F 67% 30.02 in 8.0 mi West 15.0 mph 20.7 mph N/A   Scattered Clouds
11:51 AM 53.1 °F - 41.0 °F 64% 29.97 in 8.0 mi West 11.5 mph 19.6 mph N/A   Scattered Clouds
12:51 PM 57.0 °F - 43.0 °F 59% 29.92 in 9.0 mi WNW 11.5 mph 19.6 mph N/A   Partly Cloudy
1:51 PM 57.9 °F - 43.0 °F 58% 29.92 in 9.0 mi WSW 10.4 mph - N/A   Partly Cloudy
2:51 PM 60.1 °F - 43.0 °F 53% 29.91 in 9.0 mi West 8.1 mph - N/A   Clear
3:51 PM 62.1 °F - 42.1 °F 48% 29.91 in 9.0 mi West 9.2 mph - N/A   Clear
4:51 PM 63.0 °F - 41.0 °F 45% 29.91 in 9.0 mi WSW 8.1 mph - N/A   Clear
5:51 PM 60.1 °F - 41.0 °F 49% 29.92 in 9.0 mi SW 8.1 mph - N/A   Clear
6:51 PM 55.0 °F - 41.0 °F 59% 29.93 in 9.0 mi SSE 4.6 mph - N/A   Clear
7:51 PM 52.0 °F - 39.9 °F 63% 29.93 in 9.0 mi Calm Calm - N/A   Clear
8:51 PM 50.0 °F - 39.9 °F 68% 29.92 in 9.0 mi Calm Calm - N/A   Clear
9:51 PM 46.0 °F 43.9 °F 39.0 °F 76% 29.93 in 9.0 mi East 4.6 mph - N/A   Clear
10:51 PM 48.0 °F - 39.0 °F 71% 29.93 in 9.0 mi Calm Calm - N/A   Clear
11:51 PM 45.0 °F - 39.0 °F 80% 29.93 in 9.0 mi Calm Calm - N/A   Clear